Location: Sihaung
(22.8641°N, 94.0549°E)
Time: 11:56:25
(UTC+00:00)

Cosmos 1486 Rocket - Pass Details

Date: 03 March 2021
Orbit: 758 x 784 km, 74.1° (Epoch: 11 April)

Event Time Altitude Azimuth Distance (km) Brightness Sun altitude
Rises 12:58:21 0° 347° (NNW) 3,252 7.4 -17.0°
Reaches altitude 10° 13:00:44 10° 348° (NNW) 2,326 6.6 -17.5°
Maximum altitude 13:06:02 82° 76° (ENE) 791 3.9 -18.7°
Drops below altitude 10° 13:11:20 10° 164° (SSE) 2,329 6.3 -20.0°
Sets 13:13:43 0° 165° (SSE) 3,256 7.1 -20.5°
